SCP
0 0 0 0 0 0 0 0 0 0 0 0 0 0 0 0 0 0 0 0 0 0 0 0 0 0 0 0 0 0 0 0 0 0 0 0 0 0 0 0 0 0 0 0
0 0 0 0 0 0 0 0 0 0 0 0 0 0 0 0 0 0 0 0 0 0 -0 -0 0 0 0 0 0 0 0 0 0 0 0 0 0 0 0 0 0 0 0 0
0 0 0 0 0 0 0 0 0 0 0 0 0 0 0 0 0 0 0 0 0 0 0 0 0 0 0 0 0 0 0 0 0 0 0 0 0 0 0 0 0 0 0 0
0 0 0 0 0 0 0 0 0 0 0 0 0 0 0 0 0 0 0 0 0 0 0 0 0 0 0 0 0 0 0 0 0 0 0 0 0 0 0 0 0 0 0 0
0 0 0 0 0 0 0 0 0 0 0 0 0 0 0 0 0 0 0 0 0 0 0 0 0 0 0 0 0 0 0 0 0 0 0 0 0 0 0 0 0 0 0 0
0 0 0 0 0 0 0 0 0 0 0 0 0 0 0 0 0 0 0 0 0 0 0 0 0 0 0 0 0 0 0 0 0 0 0 0 0 0 0 0 0 0 0 -0
0 0 0 0 0 0 0 0 0 0 0 0 0 0 0 0 0 0 0 0 0 0 0 0 0 0 0 0 0 0 0 0 0 0 0 0 0 0 0 0 0 0 0 0
-0 -0 -0 -0 0 -0 0 0 0 0 0 -0 0 0 0 0 0 0 0 0 0 0 0 0 0 0 0 0 0 0 0 0 0 0 0 0 0 0 0 0 0 0 0 0
0 -0 -0 -0 -0 0 0 0 0 0 0 -0 -0 0 0 0 0 0 0 0 0 0 0 0 0 0 0 0 0 0 0 0 0 0 0 0 0 0 0 0 0 0 -0 0
-0 -0 0 -0 -0 0 -0 0 0 0 0 0 0 0 0 0 0 0 0 0 0 0 0 0 0 0 0 0 0 0 0 0 0 0 0 0 0 0 0 0 0 0 0 -0
0 0 0 0 -0 0 0 -0 -0 -0 0 0 -0 -0 0 0 0 0 0 0 0 0 0 0 0 0 0 0 0 0 0 0 0 0 0 0 0 0 0 0 0 0 0 0
0 0 0 0 0 0 -0 -0 -0 -0 0 0 0 0 0 0 0 0 0 0 0 0 0 0 0 0 0 0 0 0 0 0 0 0 0 0 0 0 0 -0 -0 -0 0 0
0 0 0 0 0 0 0 0 0 0 0 0 0 0 0 0 0 0 0 0 0 0 0 0 0 0 0 0 0 0 0 0 0 0 0 0 0 0 0 -0 -0 -0 -0 0
-0 0 0 0 0 0 0 0 0 0 0 0 0 0 0 0 0 0 0 0 0 0 0 0 0 0 0 0 0 0 0 0 0 0 0 0 0 0 0 0 0 0 -0 0
0 0 0 0 0 0 0 0 0 0 0 0 0 0 0 0 0 0 0 0 0 0 0 0 0 0 0 0 0 0 0 0 0 0 0 0 0 0 0 0 0 0 0 0
0 0 0 0 0 0 0 0 0 0 0 0 0 0 0 0 0 0 0 0 0 0 0 0 0 0 0 0 0 0 0 0 0 0 0 0 0 0 0 0 0 0 0 0
0 0 0 0 0 0 0 0 0 0 0 0 0 0 0 0 0 0 -0 0 0 0 0 0 0 0 0 0 0 0 0 0 0 0 0 0 0 0 0 0 0 0 0 0
0 0 0 0 0 0 0 0 0 0 0 0 0 0 0 0 0 0 0 0 0 0 0 0 0 0 0 0 0 0 0 0 0 0 0 0 0 0 0 0 0 0 0 0
-0 0 -0 0 0 0 0 0 0 0 0 0 0 0 0 0 0 0 0 0 0 0 0 0 0 0 0 0 0 0 0 0 0 0 0 0 0 0 0 0 0 0 0 0
-0 0 0 0 0 -0 0 0 0 0 0 0 0 0 0 0 0 0 0 0 0 0 0 0 0 0 0 0 0 0 0 0 0 0 0 0 0 0 0 0 0 0 0 0
0 0 0 0 0 0 0 0 0 0 0 0 -0 0 0 0 0 0 0 0 0 0 0 0 0 0 0 0 0 0 0 0 0 0 0 0 0 0 0 0 0 0 0 0
0 0 0 0 0 0 0 0 0 0 -0 0 0 0 0 0 0 0 0 0 0 0 0 0 0 0 0 0 0 0 0 0 0 0 0 0 0 0 0 0 0 0 0 0
0 0 0 0 0 0 0 0 0 0 0 0 0 0 0 0 0 0 0 -0 0 0 0 0 0 0 0 0 0 0 0 0 0 0 0 0 0 0 0 0 0 0 0 0
0 0 0 0 0 0 0 0 0 0 0 0 0 0 0 0 0 0 -0 0 0 -0 -0 0 0 0 0 0 0 0 0 0 0 0 0 0 0 0 0 0 0 0 0 0
0 0 0 0 0 0 0 0 0 0 0 0 0 0 0 0 0 0 -0 -0 -0 -0 0 0 0 0 0 0 0 0 0 0 0 0 0 0 0 0 0 0 0 0 0 0
0 0 0 0 0 0 0 0 0 0 0 0 0 -0 -0 -0 -0 -0 0 -0 -0 0 0 0 0 0 0 0 0 0 0 0 0 0 0 0 0 0 0 0 0 0 0 0
-0 0 0 0 0 0 0 0 0 0 0 0 0 -0 -0 -0 -0 0 0 0 -0 0 0 0 0 0 0 0 0 0 0 0 0 0 0 0 0 0 0 0 0 0 0 0
Wind_Speed_500mb
55 53 51 44 37 32 33 27 10 22 40 22 9 10 13 12 13 5 8 4 8 4 8 11 9 8 6 34 17 8 8 4 6 10 13 8 3 6 15 12 16 7 6 20
55 52 47 41 36 31 28 14 22 32 57 18 20 7 11 13 7 11 3 3 2 1 3 6 3 7 7 30 22 11 13 5 2 0 3 9 11 10 13 11 6 26 14 8
57 56 49 42 35 33 31 11 6 23 52 25 32 19 19 16 18 19 3 4 2 0 1 2 5 6 8 29 16 27 6 6 5 3 4 3 4 8 6 5 5 13 23 26
60 57 53 49 44 42 36 24 11 15 9 26 22 27 22 27 18 20 13 7 12 8 2 5 8 5 7 10 17 6 5 8 12 14 19 16 13 19 19 18 18 15 16 27
66 63 59 56 49 48 52 30 16 12 7 16 34 34 22 35 29 19 13 20 14 21 20 20 17 9 7 8 10 13 16 1 2 5 18 21 23 23 26 19 6 4 13 20
70 69 67 67 66 59 55 61 53 22 30 18 16 15 33 35 26 27 26 19 20 19 18 23 36 39 28 19 15 8 8 2 5 5 5 8 14 24 32 15 14 11 11 12
77 77 78 80 80 81 83 47 42 26 19 15 24 18 31 34 39 28 31 41 21 6 1 18 14 23 29 28 25 26 6 4 2 2 4 11 7 11 13 20 21 22 18 11
70 70 74 78 82 85 89 73 42 25 17 26 22 29 34 40 38 35 37 42 32 29 22 4 8 4 4 15 27 25 24 10 5 6 10 17 23 13 3 9 13 13 13 17
62 65 67 80 86 85 88 86 78 31 9 25 39 15 34 22 22 17 43 39 18 15 5 7 7 7 4 2 2 12 24 19 12 6 4 8 7 5 3 4 12 7 5 11
55 54 55 65 77 85 87 68 92 55 23 15 51 23 25 29 27 10 11 22 13 26 8 9 9 7 3 5 6 7 12 11 22 13 9 14 18 8 4 1 7 9 10 16
59 56 51 59 71 78 85 85 70 86 21 34 41 53 37 21 38 13 21 13 12 8 13 9 8 6 8 8 6 11 16 15 9 8 10 18 9 5 5 13 33 26 36 39
57 57 55 52 67 70 86 64 78 66 56 13 53 48 57 69 66 49 41 18 14 20 7 8 6 7 5 12 8 4 8 11 10 17 12 4 4 9 29 28 35 45 42 59
54 53 52 53 50 64 72 72 68 75 32 28 38 37 60 58 59 49 21 29 23 21 19 9 6 7 11 10 10 10 9 8 8 8 7 24 48 27 19 36 36 47 45 45
50 52 54 55 55 56 61 73 82 67 24 8 14 56 48 61 55 58 54 26 33 23 28 5 4 5 12 7 2 10 8 6 10 19 23 27 35 19 42 44 40 42 43 38
44 52 48 61 55 53 58 54 59 67 39 6 9 39 61 49 55 56 61 57 32 21 9 6 7 4 6 2 3 6 7 7 9 14 4 9 16 36 38 34 38 36 36 35
41 44 51 62 58 60 57 17 55 51 40 10 7 11 31 54 60 67 51 34 27 17 9 6 12 12 6 6 6 6 3 2 6 7 20 23 31 24 21 34 29 33 30 25
46 44 43 52 66 73 41 15 28 66 32 8 2 4 12 39 44 44 32 39 17 23 13 5 3 5 13 6 11 7 7 16 20 16 19 13 10 15 34 31 24 20 19 18
62 53 48 51 68 70 24 11 40 64 20 8 4 4 8 34 18 15 28 18 18 19 13 14 7 11 6 4 12 13 16 23 10 15 18 24 25 21 17 19 17 12 9 16
71 64 65 62 45 27 19 51 71 52 9 11 6 7 6 35 12 12 20 12 4 12 7 6 11 4 3 8 12 14 18 18 27 31 26 10 9 13 16 16 11 9 13 11
79 76 21 12 25 74 86 34 9 8 2 5 3 7 1 21 7 8 10 10 5 6 7 12 5 5 18 20 16 16 20 20 24 26 21 25 17 18 16 14 14 14 18 17
40 13 19 73 65 28 8 8 7 7 4 7 7 8 8 9 5 5 4 5 6 7 3 6 3 4 7 17 19 20 18 17 15 8 8 7 8 8 11 16 18 18 24 33
23 42 50 29 10 8 7 4 5 3 4 4 1 6 10 8 6 5 7 3 6 5 4 6 5 5 14 16 19 20 18 18 16 14 13 16 14 18 22 26 29 32 37 41
43 16 10 10 12 14 7 5 4 5 9 14 9 6 7 5 9 6 3 4 6 5 6 5 5 10 13 14 13 17 16 16 21 27 28 25 30 33 35 39 40 45 51 51
13 11 12 8 8 7 5 3 2 6 7 16 11 10 7 9 6 5 7 5 6 6 4 4 4 12 12 14 14 19 26 30 37 40 39 43 48 50 48 47 44 48 52 50
14 13 10 8 7 8 10 10 5 13 9 8 7 12 10 8 9 7 5 7 7 6 3 3 9 15 20 24 26 28 31 36 40 41 44 47 48 51 52 49 50 51 52 52
13 19 8 14 5 11 17 26 14 20 10 9 12 6 7 10 6 8 9 4 5 4 5 13 19 23 27 32 33 38 39 40 42 43 45 47 48 49 50 47 46 45 44 44
12 9 23 10 8 6 12 20 24 18 9 6 5 9 8 6 7 6 6 4 4 12 20 23 24 27 28 29 33 34 36 38 40 39 40 41 40 40 42 46 40 38 37 37
Wind_Direction_500mb
267 266 263 261 253 246 256 265 245 221 206 190 214 193 177 208 272 304 255 241 229 272 356 351 340 35 42 2 342 38 357 110 225 267 273 174 214 204 236 242 221 211 264 247
265 262 258 254 247 235 244 238 259 256 204 219 215 130 187 197 233 235 239 283 1 355 278 264 309 328 309 10 15 12 339 50 120 103 45 27 65 37 7 329 253 242 247 255
263 257 251 249 239 218 228 254 236 219 213 232 210 181 177 198 225 245 278 203 239 130 64 326 286 311 313 338 335 318 290 141 94 181 359 327 338 314 341 352 264 277 254 274
259 254 246 241 237 228 223 232 228 229 211 234 209 188 181 196 209 206 182 208 188 138 273 287 257 258 333 318 353 336 1 210 195 209 225 211 236 263 278 287 254 249 283 270
253 251 248 240 233 236 227 227 213 214 254 220 202 198 189 196 197 182 215 222 189 204 220 230 273 311 320 289 348 7 346 193 115 281 259 251 257 257 271 262 238 289 314 279
250 249 244 240 235 227 233 231 240 245 233 238 207 192 190 193 188 216 208 203 212 247 250 258 256 257 256 258 283 305 315 295 129 247 330 277 264 232 228 219 222 183 242 236
254 250 245 239 233 228 227 224 218 206 237 236 211 189 187 191 200 203 215 217 218 187 255 317 299 253 249 247 244 213 232 318 63 299 296 237 287 312 257 239 271 256 287 315
251 249 246 240 231 225 226 223 219 203 224 228 249 220 193 202 207 212 216 215 220 234 279 290 267 243 255 234 226 209 200 189 223 226 221 299 295 278 254 201 278 35 358 335
253 252 257 234 224 224 222 225 226 233 183 215 207 196 197 195 201 211 222 217 195 187 165 195 229 226 244 281 232 195 177 196 200 201 217 247 266 214 42 81 282 287 237 304
253 253 255 221 219 219 217 220 221 216 240 197 198 199 203 193 186 218 164 197 204 191 185 217 212 234 234 256 199 167 163 179 210 228 237 267 247 270 106 112 321 303 293 319
251 245 247 227 219 215 214 219 218 212 214 222 211 210 194 166 181 180 149 129 187 174 186 206 185 193 221 223 220 170 178 176 190 202 242 264 208 168 164 329 312 302 294 303
242 239 235 226 219 213 212 212 214 215 216 242 221 227 220 220 217 193 170 185 160 177 173 195 178 192 200 192 211 201 226 199 188 205 209 269 311 291 325 337 315 309 301 298
234 227 222 216 207 206 209 197 196 198 200 203 216 209 215 211 215 212 163 214 220 203 202 163 200 213 170 174 220 203 233 198 230 266 256 264 285 306 349 329 318 320 321 299
224 222 221 208 205 198 198 191 192 182 165 195 205 213 211 203 207 203 204 196 193 216 203 234 184 209 199 195 230 208 214 154 236 267 280 305 279 1 351 334 331 324 322 336
217 217 211 202 198 192 198 190 172 179 178 142 151 199 205 196 207 209 211 217 222 204 161 197 215 211 165 124 121 225 208 206 229 275 156 268 291 317 323 337 335 332 330 329
203 202 200 203 187 182 173 139 183 163 152 124 163 192 204 208 215 215 211 220 222 223 190 181 201 232 183 186 229 124 92 301 6 295 308 287 299 314 294 321 323 323 327 334
181 175 174 178 172 179 159 166 179 170 154 109 111 169 181 202 197 206 212 223 237 224 198 230 211 227 201 200 239 95 333 304 289 306 317 275 315 299 304 307 311 313 323 344
166 159 155 161 166 170 155 142 156 171 145 155 156 188 122 170 170 185 194 202 184 167 173 173 194 166 177 233 58 26 349 329 295 323 296 290 296 291 305 304 305 303 352 357
151 146 147 136 130 144 157 145 146 161 165 156 171 169 160 169 138 154 167 181 161 177 194 201 174 147 192 56 34 5 351 342 320 323 323 322 11 346 344 335 350 358 47 28
137 134 105 90 115 120 128 120 108 163 119 131 128 182 114 160 114 163 156 150 151 169 187 115 61 78 86 35 23 7 355 346 344 351 1 337 5 1 6 18 32 44 77 92
118 73 80 126 131 136 100 112 125 140 157 188 191 179 141 156 144 134 180 142 142 183 131 147 99 92 38 13 12 6 6 10 10 356 331 344 6 38 56 60 69 83 86 87
112 119 113 110 77 60 87 90 109 79 83 26 99 89 98 110 152 134 164 180 169 138 53 81 94 63 18 18 18 18 25 37 45 53 59 59 73 85 86 87 89 91 96 102
104 102 76 34 7 50 54 102 36 65 0 355 11 92 86 80 59 85 107 143 55 83 51 69 63 48 37 40 44 48 54 69 78 77 78 85 90 90 92 97 100 102 102 103
67 56 48 64 7 46 36 355 3 341 342 347 22 61 52 9 63 352 76 54 48 74 80 87 52 65 71 78 80 84 83 88 89 90 97 97 97 97 99 97 100 102 101 102
65 46 54 52 352 19 1 5 40 7 8 35 94 68 61 29 66 31 89 56 70 44 86 67 58 87 93 92 90 91 94 98 97 101 101 100 102 101 100 101 102 102 102 99
61 46 51 5 51 358 14 12 13 22 37 54 51 76 63 52 44 51 21 59 60 77 58 87 103 101 102 103 107 106 105 103 101 100 99 100 100 99 100 101 98 99 98 96
56 40 32 56 55 357 351 357 351 19 36 56 46 57 51 70 63 60 22 49 70 91 83 100 111 111 110 112 111 108 108 106 105 103 99 100 103 104 101 95 95 95 95 95
Wind_Speed_850mb
55 53 51 44 37 32 33 27 10 22 40 22 9 10 13 12 13 5 8 4 8 4 8 11 9 8 6 34 17 8 8 4 6 10 13 8 3 6 15 12 16 7 6 20
55 52 47 41 36 31 28 14 22 32 57 18 20 7 11 13 7 11 3 3 2 1 3 6 3 7 7 30 22 11 13 5 2 0 3 9 11 10 13 11 6 26 14 8
57 56 49 42 35 33 31 11 6 23 52 25 32 19 19 16 18 19 3 4 2 0 1 2 5 6 8 29 16 27 6 6 5 3 4 3 4 8 6 5 5 13 23 26
60 57 53 49 44 42 36 24 11 15 9 26 22 27 22 27 18 20 13 7 12 8 2 5 8 5 7 10 17 6 5 8 12 14 19 16 13 19 19 18 18 15 16 27
66 63 59 56 49 48 52 30 16 12 7 16 34 34 22 35 29 19 13 20 14 21 20 20 17 9 7 8 10 13 16 1 2 5 18 21 23 23 26 19 6 4 13 20
70 69 67 67 66 59 55 61 53 22 30 18 16 15 33 35 26 27 26 19 20 19 18 23 36 39 28 19 15 8 8 2 5 5 5 8 14 24 32 15 14 11 11 12
77 77 78 80 80 81 83 47 42 26 19 15 24 18 31 34 39 28 31 41 21 6 1 18 14 23 29 28 25 26 6 4 2 2 4 11 7 11 13 20 21 22 18 11
70 70 74 78 82 85 89 73 42 25 17 26 22 29 34 40 38 35 37 42 32 29 22 4 8 4 4 15 27 25 24 10 5 6 10 17 23 13 3 9 13 13 13 17
62 65 67 80 86 85 88 86 78 31 9 25 39 15 34 22 22 17 43 39 18 15 5 7 7 7 4 2 2 12 24 19 12 6 4 8 7 5 3 4 12 7 5 11
55 54 55 65 77 85 87 68 92 55 23 15 51 23 25 29 27 10 11 22 13 26 8 9 9 7 3 5 6 7 12 11 22 13 9 14 18 8 4 1 7 9 10 16
59 56 51 59 71 78 85 85 70 86 21 34 41 53 37 21 38 13 21 13 12 8 13 9 8 6 8 8 6 11 16 15 9 8 10 18 9 5 5 13 33 26 36 39
57 57 55 52 67 70 86 64 78 66 56 13 53 48 57 69 66 49 41 18 14 20 7 8 6 7 5 12 8 4 8 11 10 17 12 4 4 9 29 28 35 45 42 59
54 53 52 53 50 64 72 72 68 75 32 28 38 37 60 58 59 49 21 29 23 21 19 9 6 7 11 10 10 10 9 8 8 8 7 24 48 27 19 36 36 47 45 45
50 52 54 55 55 56 61 73 82 67 24 8 14 56 48 61 55 58 54 26 33 23 28 5 4 5 12 7 2 10 8 6 10 19 23 27 35 19 42 44 40 42 43 38
44 52 48 61 55 53 58 54 59 67 39 6 9 39 61 49 55 56 61 57 32 21 9 6 7 4 6 2 3 6 7 7 9 14 4 9 16 36 38 34 38 36 36 35
41 44 51 62 58 60 57 17 55 51 40 10 7 11 31 54 60 67 51 34 27 17 9 6 12 12 6 6 6 6 3 2 6 7 20 23 31 24 21 34 29 33 30 25
46 44 43 52 66 73 41 15 28 66 32 8 2 4 12 39 44 44 32 39 17 23 13 5 3 5 13 6 11 7 7 16 20 16 19 13 10 15 34 31 24 20 19 18
62 53 48 51 68 70 24 11 40 64 20 8 4 4 8 34 18 15 28 18 18 19 13 14 7 11 6 4 12 13 16 23 10 15 18 24 25 21 17 19 17 12 9 16
71 64 65 62 45 27 19 51 71 52 9 11 6 7 6 35 12 12 20 12 4 12 7 6 11 4 3 8 12 14 18 18 27 31 26 10 9 13 16 16 11 9 13 11
79 76 21 12 25 74 86 34 9 8 2 5 3 7 1 21 7 8 10 10 5 6 7 12 5 5 18 20 16 16 20 20 24 26 21 25 17 18 16 14 14 14 18 17
40 13 19 73 65 28 8 8 7 7 4 7 7 8 8 9 5 5 4 5 6 7 3 6 3 4 7 17 19 20 18 17 15 8 8 7 8 8 11 16 18 18 24 33
23 42 50 29 10 8 7 4 5 3 4 4 1 6 10 8 6 5 7 3 6 5 4 6 5 5 14 16 19 20 18 18 16 14 13 16 14 18 22 26 29 32 37 41
43 16 10 10 12 14 7 5 4 5 9 14 9 6 7 5 9 6 3 4 6 5 6 5 5 10 13 14 13 17 16 16 21 27 28 25 30 33 35 39 40 45 51 51
13 11 12 8 8 7 5 3 2 6 7 16 11 10 7 9 6 5 7 5 6 6 4 4 4 12 12 14 14 19 26 30 37 40 39 43 48 50 48 47 44 48 52 50
14 13 10 8 7 8 10 10 5 13 9 8 7 12 10 8 9 7 5 7 7 6 3 3 9 15 20 24 26 28 31 36 40 41 44 47 48 51 52 49 50 51 52 52
13 19 8 14 5 11 17 26 14 20 10 9 12 6 7 10 6 8 9 4 5 4 5 13 19 23 27 32 33 38 39 40 42 43 45 47 48 49 50 47 46 45 44 44
12 9 23 10 8 6 12 20 24 18 9 6 5 9 8 6 7 6 6 4 4 12 20 23 24 27 28 29 33 34 36 38 40 39 40 41 40 40 42 46 40 38 37 37
Wind_Direction_850mb
267 266 263 261 253 246 256 265 245 221 206 190 214 193 177 208 272 304 255 241 229 272 356 351 340 35 42 2 342 38 357 110 225 267 273 174 214 204 236 242 221 211 264 247
265 262 258 254 247 235 244 238 259 256 204 219 215 130 187 197 233 235 239 283 1 355 278 264 309 328 309 10 15 12 339 50 120 103 45 27 65 37 7 329 253 242 247 255
263 257 251 249 239 218 228 254 236 219 213 232 210 181 177 198 225 245 278 203 239 130 64 326 286 311 313 338 335 318 290 141 94 181 359 327 338 314 341 352 264 277 254 274
259 254 246 241 237 228 223 232 228 229 211 234 209 188 181 196 209 206 182 208 188 138 273 287 257 258 333 318 353 336 1 210 195 209 225 211 236 263 278 287 254 249 283 270
253 251 248 240 233 236 227 227 213 214 254 220 202 198 189 196 197 182 215 222 189 204 220 230 273 311 320 289 348 7 346 193 115 281 259 251 257 257 271 262 238 289 314 279
250 249 244 240 235 227 233 231 240 245 233 238 207 192 190 193 188 216 208 203 212 247 250 258 256 257 256 258 283 305 315 295 129 247 330 277 264 232 228 219 222 183 242 236
254 250 245 239 233 228 227 224 218 206 237 236 211 189 187 191 200 203 215 217 218 187 255 317 299 253 249 247 244 213 232 318 63 299 296 237 287 312 257 239 271 256 287 315
251 249 246 240 231 225 226 223 219 203 224 228 249 220 193 202 207 212 216 215 220 234 279 290 267 243 255 234 226 209 200 189 223 226 221 299 295 278 254 201 278 35 358 335
253 252 257 234 224 224 222 225 226 233 183 215 207 196 197 195 201 211 222 217 195 187 165 195 229 226 244 281 232 195 177 196 200 201 217 247 266 214 42 81 282 287 237 304
253 253 255 221 219 219 217 220 221 216 240 197 198 199 203 193 186 218 164 197 204 191 185 217 212 234 234 256 199 167 163 179 210 228 237 267 247 270 106 112 321 303 293 319
251 245 247 227 219 215 214 219 218 212 214 222 211 210 194 166 181 180 149 129 187 174 186 206 185 193 221 223 220 170 178 176 190 202 242 264 208 168 164 329 312 302 294 303
242 239 235 226 219 213 212 212 214 215 216 242 221 227 220 220 217 193 170 185 160 177 173 195 178 192 200 192 211 201 226 199 188 205 209 269 311 291 325 337 315 309 301 298
234 227 222 216 207 206 209 197 196 198 200 203 216 209 215 211 215 212 163 214 220 203 202 163 200 213 170 174 220 203 233 198 230 266 256 264 285 306 349 329 318 320 321 299
224 222 221 208 205 198 198 191 192 182 165 195 205 213 211 203 207 203 204 196 193 216 203 234 184 209 199 195 230 208 214 154 236 267 280 305 279 1 351 334 331 324 322 336
217 217 211 202 198 192 198 190 172 179 178 142 151 199 205 196 207 209 211 217 222 204 161 197 215 211 165 124 121 225 208 206 229 275 156 268 291 317 323 337 335 332 330 329
203 202 200 203 187 182 173 139 183 163 152 124 163 192 204 208 215 215 211 220 222 223 190 181 201 232 183 186 229 124 92 301 6 295 308 287 299 314 294 321 323 323 327 334
181 175 174 178 172 179 159 166 179 170 154 109 111 169 181 202 197 206 212 223 237 224 198 230 211 227 201 200 239 95 333 304 289 306 317 275 315 299 304 307 311 313 323 344
166 159 155 161 166 170 155 142 156 171 145 155 156 188 122 170 170 185 194 202 184 167 173 173 194 166 177 233 58 26 349 329 295 323 296 290 296 291 305 304 305 303 352 357
151 146 147 136 130 144 157 145 146 161 165 156 171 169 160 169 138 154 167 181 161 177 194 201 174 147 192 56 34 5 351 342 320 323 323 322 11 346 344 335 350 358 47 28
137 134 105 90 115 120 128 120 108 163 119 131 128 182 114 160 114 163 156 150 151 169 187 115 61 78 86 35 23 7 355 346 344 351 1 337 5 1 6 18 32 44 77 92
118 73 80 126 131 136 100 112 125 140 157 188 191 179 141 156 144 134 180 142 142 183 131 147 99 92 38 13 12 6 6 10 10 356 331 344 6 38 56 60 69 83 86 87
112 119 113 110 77 60 87 90 109 79 83 26 99 89 98 110 152 134 164 180 169 138 53 81 94 63 18 18 18 18 25 37 45 53 59 59 73 85 86 87 89 91 96 102
104 102 76 34 7 50 54 102 36 65 0 355 11 92 86 80 59 85 107 143 55 83 51 69 63 48 37 40 44 48 54 69 78 77 78 85 90 90 92 97 100 102 102 103
67 56 48 64 7 46 36 355 3 341 342 347 22 61 52 9 63 352 76 54 48 74 80 87 52 65 71 78 80 84 83 88 89 90 97 97 97 97 99 97 100 102 101 102
65 46 54 52 352 19 1 5 40 7 8 35 94 68 61 29 66 31 89 56 70 44 86 67 58 87 93 92 90 91 94 98 97 101 101 100 102 101 100 101 102 102 102 99
61 46 51 5 51 358 14 12 13 22 37 54 51 76 63 52 44 51 21 59 60 77 58 87 103 101 102 103 107 106 105 103 101 100 99 100 100 99 100 101 98 99 98 96
56 40 32 56 55 357 351 357 351 19 36 56 46 57 51 70 63 60 22 49 70 91 83 100 111 111 110 112 111 108 108 106 105 103 99 100 103 104 101 95 95 95 95 95